| time (UTC) | temp C | wind direction | speed KPH | gust KPH | rain 1hr cm | rain 24hr cm | rain mn cm | humidity % | barometer mb |
| 20260510210520 | 23 | 64 | 8.0 | 16.1 | 0.00 | 0.00 | 0.00 | 56 | 1016.1 |
| 20260510205516 | 24 | 8 | 8.0 | 16.1 | 0.00 | 0.00 | 0.00 | 55 | 1015.9 |
| 20260510204526 | 23 | 48 | 6.4 | 12.9 | 0.00 | 0.00 | 0.00 | 59 | 1016.3 |
| 20260510203521 | 22 | 55 | 6.4 | 16.1 | 0.00 | 0.00 | 0.00 | 59 | 1016.5 |
| 20260510202517 | 23 | 66 | 9.7 | 17.7 | 0.00 | 0.00 | 0.00 | 58 | 1016.5 |
| 20260510201527 | 22 | 63 | 9.7 | 17.7 | 0.00 | 0.00 | 0.00 | 62 | 1016.4 |
| 20260510200543 | 21 | 72 | 8.0 | 14.5 | 0.00 | 0.00 | 0.00 | 62 | 1016.5 |
| 20260510195519 | 21 | 66 | 6.4 | 12.9 | 0.00 | 0.00 | 0.00 | 63 | 1016.7 |
| 20260510194530 | 21 | 63 | 4.8 | 14.5 | 0.00 | 0.00 | 0.00 | 62 | 1016.9 |
| 20260510193545 | 21 | 68 | 9.7 | 20.9 | 0.00 | 0.00 | 0.00 | 62 | 1017.0 |
| 20260510192521 | 20 | 63 | 11.3 | 16.1 | 0.00 | 0.00 | 0.00 | 65 | 1016.8 |
| 20260510191517 | 20 | 53 | 11.3 | 24.1 | 0.00 | 0.00 | 0.00 | 64 | 1016.7 |
| 20260510190527 | 20 | 56 | 14.5 | 30.6 | 0.00 | 0.00 | 0.00 | 64 | 1016.7 |
| 20260510185523 | 20 | 56 | 12.9 | 20.9 | 0.00 | 0.00 | 0.00 | 63 | 1016.6 |
| 20260510184518 | 21 | 48 | 11.3 | 24.1 | 0.00 | 0.00 | 0.00 | 61 | 1016.6 |
| 20260510183529 | 21 | 67 | 14.5 | 27.4 | 0.00 | 0.00 | 0.00 | 59 | 1016.6 |
| 20260510182525 | 22 | 76 | 11.3 | 22.5 | 0.00 | 0.00 | 0.00 | 55 | 1016.1 |
| 20260510181520 | 23 | 66 | 12.9 | 24.1 | 0.00 | 0.00 | 0.00 | 52 | 1016.1 |
| 20260510180516 | 21 | 61 | 9.7 | 16.1 | 0.00 | 0.00 | 0.00 | 57 | 1016.2 |
| 20260510175526 | 20 | 41 | 8.0 | 14.5 | 0.00 | 0.00 | 0.00 | 58 | 1016.6 |
| 20260510174522 | 21 | 51 | 14.5 | 38.6 | 0.00 | 0.00 | 0.00 | 55 | 1016.9 |
| 20260510173517 | 24 | 40 | 14.5 | 46.7 | 0.00 | 0.00 | 0.00 | 48 | 1016.8 |
| 20260510172528 | 26 | 144 | 3.2 | 12.9 | 0.00 | 0.00 | 0.00 | 51 | 1016.0 |
| 20260510171524 | 26 | 157 | 3.2 | 11.3 | 0.00 | 0.00 | 0.00 | 51 | 1015.7 |
| 20260510170519 | 27 | 124 | 4.8 | 9.7 | 0.00 | 0.00 | 0.00 | 49 | 1015.5 |
| 20260510165530 | 28 | 145 | 6.4 | 16.1 | 0.00 | 0.00 | 0.00 | 47 | 1015.1 |
| 20260510164526 | 27 | 154 | 4.8 | 14.5 | 0.00 | 0.00 | 0.00 | 50 | 1014.6 |
| 20260510163541 | 26 | 148 | 9.7 | 22.5 | 0.00 | 0.00 | 0.00 | 51 | 1014.5 |
| 20260510162517 | 26 | 155 | 9.7 | 20.9 | 0.00 | 0.00 | 0.00 | 51 | 1014.4 |
| 20260510161527 | 26 | 139 | 8.0 | 20.9 | 0.00 | 0.00 | 0.00 | 53 | 1014.2 |
| 20260510160523 | 25 | 139 | 9.7 | 24.1 | 0.00 | 0.00 | 0.00 | 53 | 1013.9 |
| 20260510155518 | 25 | 152 | 9.7 | 22.5 | 0.00 | 0.00 | 0.00 | 54 | 1013.8 |
| 20260510154529 | 24 | 124 | 11.3 | 25.7 | 0.00 | 0.00 | 0.00 | 52 | 1013.9 |
| 20260510153525 | 23 | 146 | 9.7 | 25.7 | 0.00 | 0.00 | 0.00 | 55 | 1013.8 |
| 20260510152520 | 22 | 142 | 12.9 | 27.4 | 0.00 | 0.00 | 0.00 | 57 | 1013.8 |
| 20260510151516 | 22 | 138 | 12.9 | 33.8 | 0.00 | 0.00 | 0.00 | 56 | 1014.1 |
| 20260510150527 | 22 | 136 | 11.3 | 27.4 | 0.00 | 0.00 | 0.00 | 56 | 1014.3 |
| 20260510145522 | 21 | 140 | 8.0 | 17.7 | 0.00 | 0.00 | 0.00 | 57 | 1014.3 |
| 20260510144518 | 21 | 138 | 11.3 | 24.1 | 0.00 | 0.00 | 0.00 | 57 | 1014.4 |
| 20260510143529 | 21 | 131 | 11.3 | 24.1 | 0.00 | 0.00 | 0.00 | 56 | 1014.6 |
| 20260510142544 | 20 | 109 | 8.0 | 16.1 | 0.00 | 0.00 | 0.00 | 59 | 1014.9 |
| 20260510141520 | 20 | 122 | 9.7 | 17.7 | 0.00 | 0.00 | 0.00 | 58 | 1015.1 |
| 20260510140515 | 19 | 116 | 9.7 | 17.7 | 0.00 | 0.00 | 0.00 | 58 | 1015.3 |
| 20260510135526 | 19 | 96 | 6.4 | 14.5 | 0.00 | 0.00 | 0.00 | 58 | 1015.3 |
| 20260510134522 | 19 | 97 | 9.7 | 22.5 | 0.00 | 0.00 | 0.00 | 59 | 1015.2 |
| 20260510133517 | 19 | 122 | 8.0 | 14.5 | 0.00 | 0.00 | 0.00 | 59 | 1014.9 |
| 20260510132548 | 18 | 113 | 9.7 | 20.9 | 0.00 | 0.00 | 0.00 | 61 | 1014.7 |
| 20260510131604 | 18 | 120 | 9.7 | 16.1 | 0.00 | 0.00 | 0.00 | 60 | 1014.7 |
| 20260510130519 | 18 | 118 | 3.2 | 12.9 | 0.00 | 0.00 | 0.00 | 63 | 1014.8 |
| 20260510125555 | 17 | 120 | 8.0 | 17.7 | 0.00 | 0.00 | 0.00 | 64 | 1014.5 |
| 20260510124526 | 17 | 117 | 8.0 | 14.5 | 0.00 | 0.00 | 0.00 | 65 | 1014.5 |
| 20260510123521 | 17 | 116 | 9.7 | 16.1 | 0.00 | 0.00 | 0.00 | 65 | 1014.3 |
| 20260510122617 | 17 | 118 | 9.7 | 16.1 | 0.00 | 0.00 | 0.00 | 66 | 1014.3 |
| 20260510121528 | 17 | 104 | 8.0 | 17.7 | 0.00 | 0.00 | 0.00 | 66 | 1014.3 |
| 20260510120523 | 17 | 121 | 8.0 | 12.9 | 0.00 | 0.00 | 0.00 | 66 | 1014.0 |
| 20260510115519 | 17 | 96 | 9.7 | 20.9 | 0.00 | 0.00 | 0.00 | 66 | 1014.1 |
| 20260510114529 | 17 | 115 | 8.0 | 16.1 | 0.00 | 0.00 | 0.00 | 67 | 1013.9 |
| 20260510113525 | 17 | 70 | 8.0 | 17.7 | 0.00 | 0.00 | 0.00 | 67 | 1013.9 |
| 20260510112521 | 17 | 87 | 8.0 | 20.9 | 0.00 | 0.00 | 0.00 | 67 | 1013.9 |
| 20260510111516 | 17 | 92 | 11.3 | 22.5 | 0.00 | 0.00 | 0.00 | 66 | 1013.7 |
| 20260510110547 | 17 | 66 | 11.3 | 24.1 | 0.00 | 0.00 | 0.00 | 67 | 1013.6 |
| 20260510105542 | 18 | 90 | 9.7 | 22.5 | 0.00 | 0.00 | 0.00 | 69 | 1013.7 |
| 20260510104518 | 18 | 67 | 14.5 | 33.8 | 0.00 | 0.00 | 0.00 | 69 | 1013.7 |
| 20260510103529 | 18 | 61 | 16.1 | 35.4 | 0.00 | 0.00 | 0.00 | 81 | 1013.6 |
| 20260510102525 | 18 | 58 | 9.7 | 20.9 | 0.00 | 0.00 | 0.00 | 83 | 1013.4 |
| 20260510101520 | 18 | 76 | 9.7 | 14.5 | 0.00 | 0.00 | 0.00 | 84 | 1013.4 |
| 20260510100516 | 17 | 62 | 8.0 | 14.5 | 0.00 | 0.00 | 0.00 | 84 | 1013.1 |
| 20260510095527 | 17 | 50 | 8.0 | 14.5 | 0.00 | 0.00 | 0.00 | 84 | 1013.2 |
| 20260510094522 | 17 | 65 | 8.0 | 14.5 | 0.00 | 0.00 | 0.00 | 84 | 1013.0 |
| 20260510093518 | 17 | 64 | 4.8 | 9.7 | 0.00 | 0.00 | 0.00 | 84 | 1012.9 |
| 20260510092609 | 17 | 57 | 3.2 | 6.4 | 0.00 | 0.00 | 0.00 | 84 | 1012.4 |
| 20260510091525 | 17 | 69 | 1.6 | 3.2 | 0.00 | 0.00 | 0.00 | 82 | 1011.9 |
| 20260510090520 | 17 | 61 | 4.8 | 9.7 | 0.00 | 0.00 | 0.00 | 83 | 1011.8 |
| 20260510085516 | 17 | 58 | 3.2 | 6.4 | 0.00 | 0.00 | 0.00 | 82 | 1011.6 |
| 20260510084527 | 17 | 65 | 0.0 | 3.2 | 0.00 | 0.00 | 0.00 | 81 | 1011.4 |
| 20260510083543 | 17 | 92 | 1.6 | 3.2 | 0.00 | 0.00 | 0.00 | 80 | 1011.2 |
| 20260510082518 | 18 | 84 | 0.0 | 1.6 | 0.00 | 0.00 | 0.00 | 79 | 1010.8 |
| 20260510081529 | 18 | 99 | 1.6 | 4.8 | 0.00 | 0.00 | 0.00 | 80 | 1010.6 |
| 20260510080525 | 18 | 98 | 1.6 | 4.8 | 0.00 | 0.00 | 0.00 | 79 | 1010.4 |
| 20260510075520 | 18 | 112 | 1.6 | 4.8 | 0.00 | 0.00 | 0.00 | 79 | 1010.3 |
| 20260510074516 | 18 | 143 | 1.6 | 6.4 | 0.00 | 0.00 | 0.00 | 80 | 1010.1 |
| 20260510073527 | 18 | 117 | 1.6 | 6.4 | 0.00 | 0.00 | 0.00 | 79 | 1010.2 |
| 20260510072523 | 18 | 85 | 1.6 | 3.2 | 0.00 | 0.00 | 0.00 | 77 | 1010.7 |
| 20260510071538 | 18 | 85 | 0.0 | 1.6 | 0.00 | 0.00 | 0.00 | 75 | 1010.9 |
| 20260510070549 | 18 | 85 | 0.0 | 1.6 | 0.00 | 0.00 | 0.00 | 76 | 1011.0 |
| 20260510065525 | 18 | 91 | 1.6 | 3.2 | 0.00 | 0.00 | 0.00 | 75 | 1011.3 |
| 20260510064540 | 19 | 291 | 1.6 | 3.2 | 0.00 | 0.00 | 0.00 | 74 | 1011.1 |
| 20260510063516 | 19 | 173 | 3.2 | 9.7 | 0.00 | 0.00 | 0.00 | 74 | 1010.0 |
| 20260510062527 | 19 | 171 | 4.8 | 16.1 | 0.00 | 0.00 | 0.00 | 74 | 1009.6 |
| 20260510061523 | 18 | 158 | 4.8 | 14.5 | 0.00 | 0.00 | 0.00 | 73 | 1009.6 |
| 20260510060518 | 18 | 146 | 3.2 | 9.7 | 0.00 | 0.00 | 0.00 | 72 | 1009.5 |
| 20260510055527 | 18 | 141 | 1.6 | 4.8 | 0.00 | 0.00 | 0.00 | 70 | 1009.6 |
| 20260510054615 | 18 | 146 | 1.6 | 3.2 | 0.00 | 0.00 | 0.00 | 68 | 1009.5 |
| 20260510053528 | 18 | 140 | 0.0 | 3.2 | 0.00 | 0.00 | 0.00 | 67 | 1009.3 |
| 20260510052541 | 18 | 131 | 1.6 | 4.8 | 0.00 | 0.00 | 0.00 | 65 | 1009.1 |
| 20260510051526 | 19 | 131 | 1.6 | 4.8 | 0.00 | 0.00 | 0.00 | 64 | 1009.1 |
| 20260510050525 | 19 | 134 | 3.2 | 9.7 | 0.00 | 0.00 | 0.00 | 63 | 1009.0 |
| 20260510045531 | 19 | 140 | 1.6 | 4.8 | 0.00 | 0.00 | 0.00 | 62 | 1009.0 |
| 20260510044533 | 20 | 155 | 1.6 | 4.8 | 0.00 | 0.00 | 0.00 | 61 | 1009.1 |
| 20260510043544 | 20 | 145 | 1.6 | 4.8 | 0.00 | 0.00 | 0.00 | 59 | 1009.2 |
| 20260510042521 | 20 | 135 | 1.6 | 3.2 | 0.00 | 0.00 | 0.00 | 57 | 1009.3 |
| 20260510041526 | 20 | 139 | 3.2 | 9.7 | 0.00 | 0.00 | 0.00 | 57 | 1009.3 |
| 20260510040525 | 21 | 135 | 3.2 | 9.7 | 0.00 | 0.00 | 0.00 | 56 | 1009.4 |
| 20260510035524 | 21 | 133 | 3.2 | 9.7 | 0.00 | 0.00 | 0.00 | 56 | 1009.3 |
| 20260510034519 | 21 | 121 | 4.8 | 9.7 | 0.00 | 0.00 | 0.00 | 55 | 1009.4 |
| 20260510033531 | 21 | 103 | 4.8 | 6.4 | 0.00 | 0.00 | 0.00 | 55 | 1009.5 |
| 20260510032529 | 21 | 130 | 4.8 | 11.3 | 0.00 | 0.00 | 0.00 | 55 | 1009.5 |
| 20260510031527 | 21 | 129 | 3.2 | 6.4 | 0.00 | 0.00 | 0.00 | 55 | 1009.6 |
| 20260510030516 | 22 | 137 | 1.6 | 6.4 | 0.00 | 0.00 | 0.00 | 55 | 1009.4 |
| 20260510025526 | 22 | 98 | 1.6 | 3.2 | 0.00 | 0.00 | 0.00 | 55 | 1009.3 |
| 20260510024542 | 22 | 126 | 1.6 | 4.8 | 0.00 | 0.00 | 0.00 | 55 | 1009.2 |
| 20260510023516 | 22 | 138 | 3.2 | 6.4 | 0.00 | 0.00 | 0.00 | 55 | 1009.1 |
| 20260510022527 | 23 | 107 | 3.2 | 6.4 | 0.00 | 0.00 | 0.00 | 54 | 1009.0 |
| 20260510021522 | 23 | 116 | 4.8 | 6.4 | 0.00 | 0.00 | 0.00 | 54 | 1008.9 |
| 20260510020518 | 23 | 107 | 4.8 | 6.4 | 0.00 | 0.00 | 0.00 | 54 | 1008.7 |
| 20260510015528 | 24 | 111 | 4.8 | 11.3 | 0.00 | 0.00 | 0.00 | 53 | 1008.6 |
| 20260510014524 | 25 | 116 | 6.4 | 11.3 | 0.00 | 0.00 | 0.00 | 51 | 1008.5 |
| 20260510013519 | 25 | 119 | 6.4 | 12.9 | 0.00 | 0.00 | 0.00 | 51 | 1008.4 |
| 20260510012550 | 25 | 114 | 6.4 | 9.7 | 0.00 | 0.00 | 0.00 | 50 | 1008.4 |
| 20260510011526 | 26 | 128 | 6.4 | 11.3 | 0.00 | 0.00 | 0.00 | 49 | 1008.2 |
| 20260510010521 | 27 | 113 | 6.4 | 11.3 | 0.00 | 0.00 | 0.00 | 46 | 1008.1 |
| 20260510005517 | 27 | 121 | 4.8 | 12.9 | 0.00 | 0.00 | 0.00 | 43 | 1008.0 |
| 20260510004528 | 28 | 118 | 3.2 | 9.7 | 0.00 | 0.00 | 0.00 | 35 | 1007.9 |
| 20260510003523 | 28 | 116 | 4.8 | 9.7 | 0.00 | 0.00 | 0.00 | 34 | 1007.9 |
| 20260510002539 | 29 | 135 | 1.6 | 3.2 | 0.00 | 0.00 | 0.00 | 34 | 1007.9 |
| 20260510001530 | 30 | 140 | 1.6 | 4.8 | 0.00 | 0.00 | 0.00 | 32 | 1007.8 |
| 20260510000546 | 31 | 162 | 1.6 | 4.8 | 0.00 | 0.00 | 0.00 | 30 | 1007.9 |
| 20260509235521 | 32 | 88 | 0.0 | 3.2 | 0.00 | 0.00 | 0.00 | 30 | 1007.9 |
| 20260509234517 | 36 | 61 | 3.2 | 6.4 | 0.00 | 0.00 | 0.00 | 30 | 1007.8 |
| 20260509233527 | 36 | 125 | 1.6 | 6.4 | 0.00 | 0.00 | 0.00 | 30 | 1008.0 |
| 20260509232543 | 36 | 127 | 3.2 | 6.4 | 0.00 | 0.00 | 0.00 | 30 | 1007.9 |
| 20260509231519 | 36 | 128 | 3.2 | 6.4 | 0.00 | 0.00 | 0.00 | 30 | 1007.8 |
| 20260509230530 | 37 | 120 | 4.8 | 12.9 | 0.00 | 0.00 | 0.00 | 29 | 1007.9 |
| 20260509225526 | 37 | 88 | 3.2 | 6.4 | 0.00 | 0.00 | 0.00 | 30 | 1007.9 |
| 20260509224521 | 37 | 70 | 4.8 | 9.7 | 0.00 | 0.00 | 0.00 | 30 | 1007.9 |
| 20260509223517 | 36 | 77 | 4.8 | 9.7 | 0.00 | 0.00 | 0.00 | 31 | 1007.8 |
| 20260509222528 | 37 | 93 | 4.8 | 11.3 | 0.00 | 0.00 | 0.00 | 29 | 1007.9 |
| 20260509221524 | 37 | 79 | 4.8 | 11.3 | 0.00 | 0.00 | 0.00 | 30 | 1007.9 |
| 20260509220519 | 36 | 87 | 3.2 | 9.7 | 0.00 | 0.00 | 0.00 | 30 | 1007.9 |
| 20260509215530 | 36 | 60 | 4.8 | 12.9 | 0.00 | 0.00 | 0.00 | 31 | 1007.9 |
| 20260509214526 | 36 | 148 | 1.6 | 6.4 | 0.00 | 0.00 | 0.00 | 32 | 1008.1 |
| 20260509213521 | 36 | 120 | 4.8 | 11.3 | 0.00 | 0.00 | 0.00 | 31 | 1008.2 |
| 20260509212517 | 36 | 57 | 4.8 | 12.9 | 0.00 | 0.00 | 0.00 | 31 | 1008.2 |
| 20260509211528 | 36 | 124 | 4.8 | 12.9 | 0.00 | 0.00 | 0.00 | 31 | 1008.4 |